Location: Kalberh�ni
(46.4610°N, 7.2453°E)
Time: 14:22:34
(UTC+00:00)

Lacrosse 4 Rocket - Pass Details

Date: 24 October 2021
Orbit: 537 x 619 km, 68.0° (Epoch: 04 December)

Event Time Altitude Azimuth Distance (km) Brightness Sun altitude
Rises 17:26:58 0° 331° (NNW) 2,808 5.2 -10.7°
Reaches altitude 10° 17:29:14 10° 336° (NNW) 1,918 4.3 -11.1°
Maximum altitude 17:33:28 56° 55° (NE) 716 1.6 -11.8°
Drops below altitude 10° 17:37:48 10° 134° (SE) 1,951 3.7 -12.5°
Enters shadow 17:38:33 - 136° (SE) 2,248 4.1 -12.7°
